| time (UTC) | temp F | wind direction | speed MPH | gust MPH | rain 1hr in | rain 24hr in | rain mn in | humidity % | barometer mb |
| 20260503190054 | 77 | 114 | 3.0 | 8.0 | 0.00 | 0.00 | 0.00 | ||
| 20260503180106 | 74 | 83 | 3.0 | 6.0 | 0.00 | 0.00 | 0.00 | ||
| 20260503173046 | 71 | 112 | 3.0 | 8.0 | 0.00 | 0.00 | 0.00 | ||
| 20260503150111 | 62 | 72 | 2.0 | 4.0 | 0.00 | 0.00 | 0.00 | ||
| 20260503053033 | 54 | 222 | 0.0 | 0.0 | 0.00 | 0.00 | 0.00 | ||
| 20260503043043 | 54 | 241 | 0.0 | 3.0 | 0.00 | 0.00 | 0.00 | ||
| 20260503040054 | 54 | 257 | 1.0 | 4.0 | 0.00 | 0.00 | 0.00 | ||
| 20260503033033 | 55 | 237 | 0.0 | 5.0 | 0.00 | 0.00 | 0.00 | ||
| 20260503023053 | 57 | 206 | 1.0 | 5.0 | 0.00 | 0.00 | 0.00 | ||
| 20260503013041 | 61 | 217 | 1.0 | 7.0 | 0.00 | 0.00 | 0.00 | ||
| 20260503010053 | 63 | 225 | 1.0 | 7.0 | 0.00 | 0.00 | 0.00 | ||
| 20260503003035 | 66 | 225 | 1.0 | 5.0 | 0.00 | 0.00 | 0.00 | ||
| 20260503000105 | 68 | 266 | 0.0 | 6.0 | 0.00 | 0.00 | 0.00 | ||
| 20260502233044 | 68 | 143 | 3.0 | 6.0 | 0.00 | 0.00 | 0.00 | ||
| 20260502230055 | 74 | 301 | 1.0 | 7.0 | 0.00 | 0.00 | 0.00 | ||
| 20260502223035 | 71 | 160 | 2.0 | 6.0 | 0.00 | 0.00 | 0.00 | ||
| 20260502220101 | 68 | 203 | 1.0 | 7.0 | 0.00 | 0.00 | 0.00 | ||
| 20260502213043 | 67 | 171 | 2.0 | 8.0 | 0.00 | 0.00 | 0.00 | ||
| 20260502210053 | 68 | 226 | 1.0 | 4.0 | 0.00 | 0.00 | 0.00 | ||
| 20260502203034 | 68 | 232 | 1.0 | 5.0 | 0.00 | 0.00 | 0.00 | ||
| 20260502200105 | 68 | 318 | 0.0 | 5.0 | 0.00 | 0.00 | 0.00 | ||
| 20260502193043 | 67 | 30 | 1.0 | 3.0 | 0.00 | 0.00 | 0.00 |